Hourly Weather Roundup
Issued by NWS Central Illinois

Home | Current Version | Previous Version | Text Only | Print | Product List | Glossary On
Versions: 1 2 3 4 5 6 7 8 9 10 11 12 13 14 15 16 17 18 19 20 21 22 23 24 25 26 27 28 29 30 31 32 33 34 35 36 37 38 39 40 41 42 43 44 45 46 47 48 49 50
000
NZUS43 KILX 291410
HWRILX

AREA WEATHER ROUNDUP
NATIONAL WEATHER SERVICE, LINCOLN IL
900 AM CDT WED MAR 29 2017


CITY           SKY/WX    TMP DP  RH WIND       PRES   REMARKS
BLOOMINGTON    CLOUDY    46  44  93 E21G28    30.14F
CHAMPAIGN      CLOUDY    49  43  80 E22       30.14F
DECATUR        CLOUDY    50  45  83 E22G28    30.11R
EFFINGHAM      CLOUDY    52  48  88 NE12G18   30.11S
FLORA          SUNNY     55  49  80 E12       30.09S
GALESBURG      CLOUDY    44  43  97 E7        30.16R FOG
JACKSONVILLE   CLOUDY    48  44  88 E18       30.10R
LACON          CLOUDY    42  40  95 E14G22    30.16F FOG     WCI  35
LAWRENCEVILLE  CLOUDY    53  49  86 E15       30.10F
LITCHFIELD     CLOUDY    49  45  84 E12G23    30.07R
$$


CITY           SKY/WX    TMP DP  RH WIND       PRES   REMARKS
LINCOLN        CLOUDY    49  46  92 E16       30.13R
MACOMB         CLOUDY    44  44  98 NE9       30.16R FOG
MATTOON        LGT RAIN  51  47  86 E12       30.10S
MT CARMEL AP   PTSUNNY   54  48  79 E16G22    30.10F
OLNEY-NOBLE AP PTSUNNY   52  52 100 E12       30.10S
PARIS          CLOUDY    48  46  90 NE12      30.15S
PEORIA         CLOUDY    46  43  89 E12       30.15R
PONTIAC        PTSUNNY   45  44  95 E16       30.21R
RANTOUL        CLOUDY    49  45  86 E15       30.17R
SPRINGFIELD    CLOUDY    50  45  83 E17G23    30.08F
TAYLORVILLE    CLOUDY    48  46  93 E12G22    30.08S
$$

...REGIONAL REPORTS...


CITY           SKY/WX    TMP DP  RH WIND       PRES   REMARKS
CHICAGO O`HARE CLOUDY    40  35  83 NE10      30.23F WCI  33
KANKAKEE       MOSUNNY   44  39  83 E10       30.20F
MOLINE         CLOUDY    43  39  86 E10       30.21R FOG
MOUNT STERLING CLOUDY    44  42  91 N8        30.13R
MOUNT VERNON   PTSUNNY   54  49  83 E17       30.04F
PITTSFIELD     LGT RAIN  46  43  89 NE6       30.10R
QUINCY         TSTM      43  41  93 N9        30.14R FOG
ROCKFORD       CLOUDY    40  35  83 E8        30.25R WCI  34
$$


CITY           SKY/WX    TMP DP  RH WIND       PRES   REMARKS
BURLINGTON     CLOUDY    44  44 100 E7        30.14R FOG
CEDAR RAPIDS   CLOUDY    41  40  96 E14       30.14F FOG     WCI  33
DES MOINES     LGT RAIN  43  40  89 E15       30.06S FOG
KIRKSVILLE     RAIN      43  43 100 E15       30.03R FOG
OTTUMWA        LGT RAIN  41  41 100 E21G28    30.06F FOG     WCI  32
ST LOUIS       CLOUDY    51  44  77 E13       30.04R
$$


CITY           SKY/WX    TMP DP  RH WIND       PRES   REMARKS
TERRE HAUTE    CLOUDY    50  43  77 E13       30.15R
EVANSVILLE     SUNNY     56  49  77 E13       30.09F
INDIANAPOLIS   MOSUNNY   48  39  71 E14       30.18S
LAFAYETTE      SUNNY     47  40  76 E20       30.18F
MADISON        CLOUDY    37  35  92 E6        30.25F WCI  32
MILWAUKEE      CLOUDY    39  37  92 NE5       30.28R
$$






USA.gov is the U.S. government's official web portal to all federal, state and local government web resources and services.